Regional Weather Roundup
Issued by NWS Green Bay, WI

Home | Current Version | Previous Version | Text Only | Print | Product List | Glossary On
Versions: 1 2 3 4 5 6 7 8 9 10 11 12 13 14 15 16 17 18 19 20 21 22 23 24 25 26 27 28 29 30 31 32 33 34 35 36 37 38 39 40 41 42 43 44 45 46 47 48 49 50
484
ASUS43 KGRB 011811
RWRGRB

NORTH-CENTRAL AND NORTHEAST WISCONSIN REGIONAL WEATHER ROUNDUP
NATIONAL WEATHER SERVICE GREEN BAY WI
1200 PM CST WED MAR 01 2017

WIZ005-009-010>012-018-019-011900-
NORTH CENTRAL WISCONSIN

CITY           SKY/WX    TMP DP  RH WIND       PRES   REMARKS
IRONWOOD       LGT SNOW  21  17  84 N15G23    29.82R FOG     WCI   8
MANITOWISH WTR CLOUDY    19  16  88 N14G23    29.74R WCI   6
ARBOR VITAE    CLOUDY    22  18  85 N18G26      N/A  WCI   7
EAGLE RIVER    CLOUDY    20  15  81 N14G21    29.69R WCI   7
LAND O LAKES   LGT SNOW  20  16  85 N13G24    29.71S WCI   7
RHINELANDER    MIX PCPN  22  18  85 N12G22    29.69R
PHILLIPS       CLOUDY    22  17  84 N9G17     29.75R
ANTIGO         LGT SNOW  22  19  86 N17G25    29.64R WCI   8
TOMAHAWK       CLOUDY    22  17  82 NW12G22   29.71R
MERRILL        NOT AVBL
$$

WIZ013-073-011900-
NORTHEAST WISCONSIN

CITY           SKY/WX    TMP DP  RH WIND       PRES   REMARKS
IRON MOUNTAIN  MIX PCPN  23  15  71 N21G32    29.63R WCI   8
MARINETTE      LGT SNOW  24  21  88 N17G25    29.59R VSB 3/4
OCONTO         CLOUDY    25  21  84 N14G25    29.60R
$$

WIZ017-030-035>037-045-011900-
CENTRAL WISCONSIN

CITY           SKY/WX    TMP DP  RH WIND       PRES   REMARKS
MEDFORD        LGT SNOW  24  20  83 NW14G23   29.72R
WAUSAU         SNOW      24  20  84 N14G22    29.67R VSB 1/2
MOSINEE        SNOW      25  23  93 NW16      29.69R VSB 1/2
MARSHFIELD     SNOW      25  21  85 N21G28    29.70R VSB 1/2
WISC RAPIDS    SNOW      25  23  92 N16       29.70R VSB 1/2
STEVENS POINT  MIX PCPN  23  22  94 NW10G23   29.67R VSB 3/4
WAUPACA        SNOW      29  25  85 NW15      29.65R VSB 1/2
SHAWANO        LGT SNOW  29  25  84 N8        29.63R
CLINTONVILLE   SNOW      28  27  93 N9        29.64R VSB 1/2
WAUTOMA        LGT SNOW  28  25  88 NW12      29.66R VSB 3/4
$$

WIZ038-039-048-051-011900-
FOX VALLEY

CITY           SKY/WX    TMP DP  RH WIND       PRES   REMARKS
NWS GREEN BAY  SNOW      27  25  92 NW9G20    29.61R VSB 1/2
APPLETON       SNOW      27  27 100 N16G23    29.60R VSB 1/2
OSHKOSH        SNOW      28  25  88 N12       29.62R VSB 1/2
FOND DU LAC    HAZE      29  24  82 N15       29.62R VSB 1/2
$$

WIZ022-050-052-011900-
EAST CENTRAL WISCONSIN

CITY           SKY/WX    TMP DP  RH WIND       PRES   REMARKS
EPHRAIM          N/A     23  23  99 N22G35    29.54S WCI   8
WASHINGTON ISL CLOUDY    23  21  92 N21G29    29.56R WCI   8
STURGEON BAY   SNOW      24  22  91 N28       29.56R VSB 1/4 WCI   7
MANITOWOC      SNOW      27  24  89 NW20G26   29.59R VSB 1/2
SHEBOYGAN      SNOW      28  25  88 NW13      29.59R VSB 1/4
$$

LMZ563-521-522-541>543-011900-
LAKESHORE

STATION/POSITION TIME  TEMP    WIND        PRES    VSBY  WAVE
                       AIR SEA DIR/SP/G                  HT/PER
                 (UTC) (F)     (DEG/KT/KT) (MB)    (MI)  (FT/S)
SHEBOYGAN LKSHOR 1800   27     320/ 22/ 27 1002.6R
KEWAUNEE LKSHORE 1748   26     360/ 16/ 28 1000.7R
NORTHPORT PIER   1740   25     350/ 23/ 33 1001.4R
SISTER BAY LKSHO 1750   24      10/ 26/ 38   N/A
CHAMBERS ISLAND  1740   25     350/ 26/ 31 1001.0R
MENOMINEE LKSHOR 1748   25     330/ 19/ 25 1001.2R
$$




USA.gov is the U.S. government's official web portal to all federal, state and local government web resources and services.